Regional Weather Roundup
Issued by NWS

Home | Current Version | Previous Version | Text Only | Print | Product List | Glossary Off
Versions: 1 2 3 4 5 6 7 8 9 10 11 12 13 14 15 16 17 18 19 20 21 22 23 24 25 26 27 28 29 30 31 32 33 34 35 36 37 38 39 40 41 42 43 44 45 46 47 48 49 50

000
ASUS43 KMPX 170610
RWRMN
WEATHER ROUNDUP FOR MINNESOTA
NATIONAL WEATHER SERVICE TWIN CITIES/CHANHASSEN MN
1200 AM CST SUN DEC 17 2017


NOTE: "FAIR" INDICATES FEW OR NO CLOUDS BELOW 12,000 FEET WITH NO
SIGNIFICANT WEATHER AND/OR OBSTRUCTIONS TO VISIBILITY. N/A MEANS
CURRENT SKY AND/OR WEATHER CONDITIONS ARE NOT AVAILABLE.

MNZ060>063-068>070-170700-
   Twin Cities Metro

CITY           SKY/WX    TMP DP  RH WIND       PRES   REMARKS
TWIN CITIES    CLOUDY    23  18  81 NE3       30.09F
6HR MIN TEMP:  23; 6HR MAX TEMP:  27;

ST PAUL        CLOUDY    22  16  78 NE6       30.11F WCI  14
CRYSTAL        CLOUDY    22  15  75 NE5       30.08F WCI  16
BLAINE         CLOUDY    21  18  86 E5        30.09F WCI  15
LAKEVILLE        N/A     19  18  93 CALM      30.09R
EDEN PRAIRIE   CLOUDY    25  18  74 NE5       30.08F WCI  19
6HR MIN TEMP:  24; 6HR MAX TEMP:  28;

SOUTH ST PAUL  CLOUDY    23  17  79 CALM      30.10F
LAKE ELMO      FAIR      21  18  86 NE5       30.11F WCI  15
$$
MNZ001>005-007-008-013>017-022>024-027-028-170700-
   Northwest Minnesota

CITY           SKY/WX    TMP DP  RH WIND       PRES   REMARKS
BEMIDJI        CLOUDY    24  22  94 SW7       30.06R WCI  16
HALLOCK        CLOUDY    16  12  86 S8        30.01S WCI   5
ROSEAU         CLOUDY    19  16  86 S7        30.02S WCI  10
WARROAD        CLOUDY    19  16  86 S3        30.02S
THIEF RVR FALL FOG       19  18  95 S9        30.06R VSB 1/2 WCI   8
CROOKSTON      CLOUDY    18  16  93 S5        30.07S WCI  11
FOSSTON        CLOUDY    23  21  93 S12       30.07R WCI  12
DETROIT LAKES  CLOUDY    27  27 100 CALM      30.08S
MOORHEAD       PTCLDY    21  19  93 CALM      30.10S
PARK RAPIDS    CLOUDY    25  23  92 S3        30.06S
MAHNOMEN       CLOUDY    25  23  94 S6        30.08R WCI  18
$$
MNZ006-009>011-018-025>026-170700-
   North Central Minnesota

CITY           SKY/WX    TMP DP  RH WIND       PRES   REMARKS
BAUDETTE       CLOUDY    20  18  92 S6        30.03R FOG     WCI  12
FLAG ISLAND    CLOUDY    18  16  93 S7        30.00S FOG     WCI   8
INTL FALLS     CLOUDY    20  17  88 VRB3      30.04F
6HR MIN TEMP:  12; 6HR MAX TEMP:  20;

WASKISH        CLOUDY    23  21  93 SW5       30.06R WCI  17
BIG FORK       CLOUDY    21  18  86 S3        30.06S
LONGVILLE      CLOUDY    23  19  86 CALM      30.08S
GRAND RAPIDS   CLOUDY    20  16  84 S8        30.10S WCI  10
CRANE LAKE     CLOUDY    19  18  93 CALM      30.09F
ORR            CLOUDY    19  16  86 S3        30.05S
COOK           CLOUDY    19  18  93 SW5       30.08S WCI  13
WALKER         CLOUDY    24  22  93 SW3       30.07S
$$
MNZ012-019>021-037-170700-
   Northeast Minnesota

CITY           SKY/WX    TMP DP  RH WIND       PRES   REMARKS
DULUTH         CLOUDY    19  14  81 CALM      30.09S
6HR MIN TEMP:  18; 6HR MAX TEMP:  20;

ELY            CLOUDY    21  18  86 S6        30.07S WCI  14
HIBBING        CLOUDY    19  15  84 S5        30.08S WCI  12
EVELETH        CLOUDY    20  15  79 S5        30.10S WCI  13
DULUTH HARBOR  CLOUDY    23  18  80 CALM      30.16S
TWO HARBORS    CLOUDY    25  18  74 CALM      30.10R
SILVER BAY     CLOUDY    23  19  86 CALM      30.09S
GRAND MARAIS     N/A     30  22  72 S9        30.14F WCI  22
G MARAIS ARPRT CLOUDY    19  16  86 S5        30.07S WCI  13
$$
MNZ029>031-032-039>041-046>048-054>057-064-170700-
   West Central Minnesota

CITY           SKY/WX    TMP DP  RH WIND       PRES   REMARKS
FERGUS FALLS   CLOUDY    21  21 100 CALM      30.12S FOG
WHEATON        CLOUDY    27  27 100 CALM      30.11F FOG
MORRIS         MOCLDY    25  25 100 SW3       30.08F FOG
ALEXANDRIA     CLOUDY    27  26  96 S5        30.09S FOG     WCI  22
ELBOW LAKE     FAIR      22  22  98 CALM      30.09F FOG
WADENA         CLOUDY    25  25 100 CALM      30.07S FOG
GLENWOOD       CLOUDY    27  25  93 CALM      30.08F FOG
APPLETON       CLOUDY    30  27  86 CALM      30.09F
BENSON         CLOUDY    28  25  86 CALM      30.11S
ORTONVILLE     CLOUDY    27  23  86 CALM      30.09S FOG
MADISON        CLOUDY    30  30 100 CALM      30.09F FOG
WILLMAR        FAIR      27  25  93 CALM      30.10S FOG
$$
MNZ033>034-036-042>043-049>051-058-059-170700-
   Central Minnesota

CITY           SKY/WX    TMP DP  RH WIND       PRES   REMARKS
ST CLOUD       CLOUDY    22  17  81 NE5       30.10F WCI  16
6HR MIN TEMP:  21; 6HR MAX TEMP:  24;

SAUK CENTRE    CLOUDY    24  24  98 CALM      30.10F FOG
PAYNESVILLE    CLOUDY    24  24  99 N5        30.09F WCI  18
AITKIN         CLOUDY    19  16  86 S3        30.09S
PINE RIVER     CLOUDY    21  19  93 CALM      30.12S
BRAINERD       CLOUDY    23  19  85 S3        30.10S
STAPLES        CLOUDY    25  25 100 S3        30.09S FOG
LONG PRAIRIE   CLOUDY    25  23  93 SE3       30.09F FOG
LITTLE FALLS   CLOUDY    25  19  80 CALM      30.11F
LITCHFIELD     CLOUDY    25  25 100 CALM      30.08F
BUFFALO        CLOUDY    22  19  85 N3        30.11S
MAPLE LAKE     CLOUDY    24  21  90 CALM      30.10F
HUTCHINSON     CLOUDY    26  24  91 CALM      30.09F
$$
MNZ037-044-045-052-053-170700-
   East Central Minnesota

CITY           SKY/WX    TMP DP  RH WIND       PRES   REMARKS
PRINCETON      CLOUDY    21  18  86 CALM      30.12R
MORA           CLOUDY    21  18  86 CALM      30.14S
CAMBRIDGE      CLOUDY    19  14  79 CALM      30.12F
RUSH CITY      CLOUDY    19  16  88 CALM      30.13F
MOOSE LAKE     CLOUDY    23  18  80 CALM      30.11R
HINCKLEY       CLOUDY    23  19  86 CALM      30.13S
CLOQUET        CLOUDY    19  14  79 CALM      30.10S
MCGREGOR       CLOUDY    23  19  86 S3        30.10S
$$
MNZ071>073-080-081-089-090-097-098-170700-
   Southwest Minnesota

CITY           SKY/WX    TMP DP  RH WIND       PRES   REMARKS
MONTEVIDEO     CLOUDY    27  25  93 CALM      30.09F FOG
GRANITE FALLS  CLOUDY    25  23  93 CALM      30.10F FOG
CANBY          CLOUDY    29  28  94 CALM      30.10S
MARSHALL       CLOUDY    23  21  92 CALM      30.08F FOG
REDWOOD FALLS  CLOUDY    28  25  88 NE3       30.08S
OLIVIA         CLEAR     23  21  93 CALM      30.08S FOG
PIPESTONE      CLOUDY    27  25  93 NE6       30.04F FOG     WCI  20
WINDOM           N/A     27  16  63 NE6       30.06R HAZE    WCI  20
WORTHINGTON    CLOUDY    25  23  93 N10       30.04F FOG     WCI  15
JACKSON        CLOUDY    27  27 100 NE10      30.05S FOG     WCI  17
SLAYTON        CLOUDY    24  24  98 N9        30.05S FOG     WCI  15
$$
MNZ065>067-074>077-082>085-091>093-170700-
   South Central Minnesota

CITY           SKY/WX    TMP DP  RH WIND       PRES   REMARKS
MANKATO        CLOUDY    27  24  89 NE9       30.06F FOG     WCI  18
NEW ULM        CLOUDY    27  25  93 NE5       30.07F FOG     WCI  21
ST JAMES       CLOUDY    27  27 100 CALM      30.08S FOG
FAIRMONT       CLOUDY    27  26  96 NE9       30.06S FOG     WCI  18
GLENCOE        CLOUDY    26  26 100 CALM      30.08S
FARIBAULT      CLEAR     21  19  93 CALM      30.08R
OWATONNA       CLOUDY    23  21  93 N5        30.05F WCI  17
WASECA         CLOUDY    25  23  93 NE3       30.07S
ALBERT LEA     PTCLDY    23  19  86 NE5       30.05S WCI  17
$$
MNZ078>079-086>088-094>096-170700-
   Southeast Minnesota

CITY           SKY/WX    TMP DP  RH WIND       PRES   REMARKS
ROCHESTER      CLEAR     22  20  92 NE8       30.04S WCI  12
6HR MIN TEMP:  22; 6HR MAX TEMP:  26;

RED WING       CLOUDY    23  16  74 E3        30.09S
STANTON        PTCLDY    22  18  87 NE3       30.07S
DODGE CENTER   CLEAR     21  19  93 NE5       30.05S WCI  15
WINONA         CLOUDY    30  28  93 E5        30.11S WCI  25
AUSTIN         CLOUDY    23  19  86 CALM      30.04R
PRESTON        FOG       24  23  95 E5        30.05S VSB 1   WCI  18
$$
ABBREVIATIONS USED IN REMARKS
   TC - TEMPERATURES IN CELSIUS
  WCI - WIND CHILL INDEX
   HX - HEAT INDEX
  VSB - VISIBILITY
$$




USA.gov is the U.S. government's official web portal to all federal, state and local government web resources and services.